Location: Township of Marena
(38.1747°N, 99.6798°W)
Time: 03:36:18
(UTC+00:00)

Cosmos 1300 - Pass Details

Date: 26 October 2020
Orbit: 511 x 513 km, 82.5° (Epoch: 24 November)

Event Time Altitude Azimuth Distance (km) Brightness Sun altitude
Rises 00:25:50 0° 181° (S) 2,612 6.4 -8.3°
Reaches altitude 10° 00:27:57 10° 178° (S) 1,731 5.5 -8.7°
Maximum altitude 00:31:43 69° 95° (E) 553 2.6 -9.5°
Drops below altitude 10° 00:35:31 10° 12° (NNE) 1,745 5.2 -10.2°
Sets 00:37:40 0° 10° (N) 2,636 6.1 -10.6°
